User: anonymous   Login
Location: Unspecified
(0.0000°N, 0.0000°E)
Time: 22:18:19
(UTC+00:00)
Language:

Oscar 11 - Orbit

View from above orbital plane
View from above orbital plane
View from above satellite
View from above satellite

Ground track
Ground track

The orbit data is extracted from the following two-line orbital elements,

1 14781U 84021B   17327.14022495  .00000135  00000-0  22804-4 0  9992
2 14781  97.6775   6.8259 0009501  46.3492 313.8508 14.82957934813908
Epoch (UTC): 23 November 2017 03:21:55
Eccentricity: 0.0009501
inclination: 97.6775°
perigee height: 613 km
apogee height: 626 km
right ascension of ascending node: 6.8259°
argument of perigee: 46.3492°
revolutions per day: 14.82957934
mean anomaly at epoch: 313.8508°
orbit number at epoch: 81390

The dashed part of the orbit path shows where the satellite is in the earth's shadow,  

DLR